Middleton, WI

7:14 PM CDT on September 25, 2016 (GMT -0500)
Middleton

Weather History for KC29 - February, 2013

Change the Weather History Date:

Sunday, February 17, 2013

  Actual Average (KMSN) Record (KMSN)
Temperature  
Mean Temperature 15 °F 24 °F  
Max Temperature 29 °F 32 °F 61 °F (1981)
Min Temperature 2 °F 16 °F -16 °F (1973)
Degree Days  
Heating Degree Days 50 41  
Month to date heating degree days 740  
Since 1 July heating degree days 5053  
Cooling Degree Days 0 0  
Month to date cooling degree days 0  
Year to date cooling degree days 0  
Moisture  
Dew Point 6 °F    
Average Humidity 64    
Maximum Humidity 80    
Minimum Humidity 46    
Precipitation  
Precipitation 0.00 in 0.05 in 1.36 in (2008)
Month to date precipitation 0.81  
Year to date precipitation 2.04  
Snow  
Snow 0.00 in 0.40 in 4.90 in (1975)
Month to date snowfall 6.7  
Since 1 July snowfall 37.2  
Snow Depth -    
Sea Level Pressure  
Sea Level Pressure 30.08 in    
Wind  
Wind Speed 4 mph (SSE)    
Max Wind Speed 13 mph    
Max Gust Speed 18 mph    
Visibility 10 miles    
Events      
T = Trace of Precipitation, MM = Missing Value Source: NWS Daily Summary

Daily Weather History Graph

Daily Weather History Graph

Search for Another Location

Airport or City:

Trip Planner

Search our weather history database for the weather conditions in past years. The results will help you decide how hot, cold, wet, or windy it might be!

Date:

Astronomy

Feb. 17, 2013 Rise Set
Actual Time 6:52 AM CST 5:32 PM CST
Civil Twilight 6:23 AM CST 6:01 PM CST
Nautical Twilight 5:50 AM CST 6:34 PM CST
Astronomical Twilight 5:17 AM CST 7:07 PM CST
Moon 10:32 AM CST (2/17) 12:40 AM CST (2/17)
Length of Visible Light 11h 37m
Length of Day
10h 39m
Waxing Crescent, 49% of the Moon is Illuminated
Feb 17
Waxing Crescent
Feb 17
First Quarter
Feb 25
Full
Mar 4
Last Quarter
Mar 11
New

Hourly Weather History & Observations

Time (CST) Temp. Windchill Dew Point Humidity Pressure Visibility Wind Dir Wind Speed Gust Speed Precip Events Conditions
12:15 AM 6.6 °F - -0.4 °F 73% 30.16 in 10.0 mi Calm Calm - N/A   Clear
12:35 AM 5.7 °F - -1.3 °F 73% 30.16 in 10.0 mi Calm Calm - N/A   Clear
12:55 AM 4.8 °F - -1.1 °F 76% 30.16 in 10.0 mi Calm Calm - N/A   Clear
1:15 AM 5.2 °F - -0.8 °F 76% 30.16 in 10.0 mi Calm Calm - N/A   Clear
1:35 AM 4.5 °F - -1.3 °F 77% 30.16 in 10.0 mi Calm Calm - N/A   Clear
1:55 AM 4.8 °F - -1.3 °F 76% 30.16 in 10.0 mi Calm Calm - N/A   Clear
2:15 AM 4.6 °F - -0.6 °F 79% 30.16 in 10.0 mi Calm Calm - N/A   Clear
2:35 AM 4.1 °F - -1.3 °F 78% 30.16 in 10.0 mi Calm Calm - N/A   Clear
2:55 AM 3.7 °F - -1.7 °F 78% 30.16 in 10.0 mi Calm Calm - N/A   Clear
3:15 AM 4.3 °F - -2.2 °F 75% 30.16 in 10.0 mi Calm Calm - N/A   Clear
3:35 AM 3.9 °F - -1.8 °F 77% 30.15 in 10.0 mi Calm Calm - N/A   Clear
3:55 AM 4.1 °F - -1.3 °F 78% 30.15 in 10.0 mi Calm Calm - N/A   Clear
4:15 AM 3.7 °F - -1.7 °F 78% 30.15 in 10.0 mi Calm Calm - N/A   Clear
4:16 AM 3.2 °F - -2.2 °F 78% 30.15 in 10.0 mi Calm Calm - N/A   Clear
4:35 AM 3.2 °F - -2.2 °F 78% 30.15 in 10.0 mi Calm Calm - N/A   Clear
4:55 AM 3.7 °F - -1.5 °F 79% 30.16 in 10.0 mi Calm Calm - N/A   Clear
5:15 AM 3.9 °F - -1.5 °F 78% 30.16 in 10.0 mi Calm Calm - N/A   Clear
5:35 AM 4.1 °F - -1.1 °F 79% 30.17 in 10.0 mi Calm Calm - N/A   Clear
5:55 AM 3.6 °F - -1.7 °F 79% 30.16 in 10.0 mi Calm Calm - N/A   Clear
6:15 AM 2.3 °F - -2.6 °F 80% 30.17 in 10.0 mi Calm Calm - N/A   Clear
6:35 AM 3.0 °F - -2.4 °F 78% 30.17 in 10.0 mi Calm Calm - N/A   Clear
6:55 AM 3.0 °F - -2.2 °F 79% 30.17 in 10.0 mi Calm Calm - N/A   Clear
7:15 AM 3.2 °F - -1.8 °F 80% 30.17 in 10.0 mi Calm Calm - N/A   Clear
7:35 AM 4.1 °F - -2.0 °F 76% 30.16 in 10.0 mi Calm Calm - N/A   Clear
7:55 AM 5.9 °F - 0.3 °F 78% 30.17 in 10.0 mi Calm Calm - N/A   Clear
8:15 AM 6.8 °F - 0.9 °F 77% 30.16 in 10.0 mi Calm Calm - N/A   Clear
8:35 AM 8.6 °F - 2.1 °F 75% 30.16 in 10.0 mi Calm Calm - N/A   Clear
8:55 AM 11.3 °F - 3.6 °F 71% 30.16 in 10.0 mi Calm Calm - N/A   Clear
9:15 AM 14.5 °F - 4.3 °F 64% 30.15 in 10.0 mi Calm Calm - N/A   Clear
9:35 AM 17.1 °F 6.6 °F 1.0 °F 50% 30.15 in 10.0 mi SSW 8.1 mph - N/A   Clear
9:55 AM 17.6 °F 6.4 °F 1.9 °F 50% 30.16 in 10.0 mi SSW 9.2 mph - N/A   Clear
10:15 AM 18.3 °F 9.1 °F 2.3 °F 50% 30.16 in 10.0 mi SSW 6.9 mph - N/A   Clear
10:35 AM 19.2 °F 9.3 °F 1.4 °F 46% 30.16 in 10.0 mi South 8.1 mph - N/A   Clear
10:55 AM 20.1 °F 9.5 °F 2.7 °F 47% 30.15 in 10.0 mi SSE 9.2 mph - N/A   Clear
11:15 AM 20.8 °F 11.2 °F 3.7 °F 48% 30.15 in 10.0 mi SSW 8.1 mph - N/A   Clear
11:35 AM 21.6 °F 13.0 °F 4.3 °F 47% 30.15 in 10.0 mi South 6.9 mph - N/A   Clear
11:55 AM 21.9 °F 11.7 °F 5.2 °F 49% 30.14 in 10.0 mi South 9.2 mph - N/A   Clear
12:15 PM 22.6 °F 14.3 °F 4.8 °F 46% 30.13 in 10.0 mi South 6.9 mph - N/A   Clear
12:55 PM 23.7 °F 13.3 °F 7.0 °F 49% 30.10 in 10.0 mi SSW 10.4 mph - N/A   Clear
12:56 PM 24.8 °F 14.0 °F 6.8 °F 46% 30.10 in 10.0 mi SSW 11.5 mph - N/A   Clear
1:15 PM 24.4 °F 14.9 °F 7.7 °F 49% 30.10 in 10.0 mi South 9.2 mph - N/A   Clear
1:35 PM 25.3 °F 16.7 °F 7.3 °F 47% 30.09 in 10.0 mi South 8.1 mph - N/A   Clear
1:55 PM 26.1 °F 18.4 °F 8.6 °F 48% 30.08 in 10.0 mi South 6.9 mph - N/A   Clear
2:15 PM 25.9 °F 16.6 °F 9.0 °F 49% 30.07 in 10.0 mi SSE 9.2 mph - N/A   Clear
2:35 PM 27.1 °F 18.2 °F 9.7 °F 48% 30.06 in 10.0 mi SE 9.2 mph - N/A   Clear
2:55 PM 26.4 °F 16.6 °F 10.4 °F 51% 30.05 in 10.0 mi SSE 10.4 mph - N/A   Clear
3:15 PM 27.0 °F 17.3 °F 10.0 °F 49% 30.05 in 10.0 mi SSE 10.4 mph - N/A   Clear
3:35 PM 26.6 °F 16.8 °F 10.6 °F 51% 30.03 in 10.0 mi SSE 10.4 mph - N/A   Clear
3:55 PM 27.0 °F 17.3 °F 10.8 °F 51% 30.03 in 10.0 mi SSE 10.4 mph - N/A   Clear
4:15 PM 27.1 °F 16.4 °F 11.1 °F 51% 30.03 in 10.0 mi South 12.7 mph - N/A   Clear
4:35 PM 27.0 °F 17.3 °F 11.5 °F 52% 30.02 in 10.0 mi SSE 10.4 mph - N/A   Clear
4:55 PM 27.0 °F 16.7 °F 11.3 °F 52% 30.02 in 10.0 mi SSE 11.5 mph - N/A   Clear
5:15 PM 26.4 °F 17.3 °F 11.8 °F 54% 30.01 in 10.0 mi SSE 9.2 mph - N/A   Clear
5:35 PM 26.1 °F 17.6 °F 12.4 °F 56% 30.00 in 10.0 mi SE 8.1 mph - N/A   Clear
6:15 PM 26.2 °F 17.8 °F 12.9 °F 57% 30.00 in 10.0 mi SE 8.1 mph - N/A   Clear
6:35 PM 26.2 °F 17.8 °F 13.3 °F 58% 30.00 in 10.0 mi SE 8.1 mph - N/A   Clear
6:55 PM 26.1 °F 16.8 °F 14.0 °F 60% 29.98 in 10.0 mi SE 9.2 mph - N/A   Clear
7:15 PM 26.2 °F 16.4 °F 14.9 °F 62% 29.97 in 10.0 mi SE 10.4 mph - N/A   Clear
7:35 PM 26.4 °F 16.6 °F 15.4 °F 63% 29.96 in 10.0 mi SE 10.4 mph - N/A   Clear
7:55 PM 26.6 °F 17.5 °F 15.8 °F 64% 29.97 in 10.0 mi SSE 9.2 mph 16.1 mph N/A   Clear
8:15 PM 27.0 °F 16.7 °F 15.8 °F 63% 29.96 in 10.0 mi SSE 11.5 mph 17.3 mph N/A   Clear
8:35 PM 27.1 °F 17.5 °F 16.2 °F 63% 29.95 in 10.0 mi SSE 10.4 mph 18.4 mph N/A   Clear
8:55 PM 27.3 °F 17.7 °F 16.2 °F 63% 29.94 in 10.0 mi SSE 10.4 mph - N/A   Scattered Clouds
9:15 PM 27.5 °F 16.8 °F 16.5 °F 63% 29.94 in 10.0 mi SSE 12.7 mph 16.1 mph N/A   Clear
9:35 PM 27.5 °F 17.4 °F 16.7 °F 64% 29.93 in 10.0 mi SSE 11.5 mph - N/A   Clear
9:55 PM 27.9 °F 17.3 °F 17.2 °F 64% 29.93 in 10.0 mi SSE 12.7 mph 17.3 mph N/A   Clear
10:15 PM 28.0 °F 18.1 °F 17.4 °F 64% 29.93 in 10.0 mi SSE 11.5 mph 18.4 mph N/A   Clear
10:35 PM 28.0 °F 18.1 °F 17.6 °F 65% 29.91 in 10.0 mi SSE 11.5 mph - N/A   Clear
10:55 PM 28.2 °F 18.3 °F 18.1 °F 66% 29.90 in 10.0 mi SSE 11.5 mph 18.4 mph N/A   Clear
11:15 PM 28.4 °F 19.1 °F 18.5 °F 66% 29.89 in 10.0 mi SE 10.4 mph - N/A   Clear
11:35 PM 28.8 °F 19.5 °F 18.9 °F 67% 29.88 in 10.0 mi SSE 10.4 mph - N/A   Clear
11:55 PM 29.3 °F 19.1 °F 19.4 °F 67% 29.87 in 10.0 mi SSE 12.7 mph - N/A   Clear